Location: Ottawa
(45.4170°N, 75.7000°W)
Time: 23:20:52
(UTC-04:00)

ISS - Pass Details

Date: 24 May 2021
Orbit: 417 x 422 km, 51.6° (Epoch: 13 June)

Event Time Altitude Azimuth Distance (km) Brightness Sun altitude
Rises 23:59:34 0° 299° (WNW) 2,369 0.7 -22.4°
Reaches altitude 10° 00:01:40 10° 300° (WNW) 1,504 -0.4 -22.5°
Enters shadow 00:04:06 44° 304° (NW) 589 -2.8 -22.6°
